Simultaneous Nadir Overpasses (SNOs) Predictions

Prediction of SNOs between METOP-A and NOAA-19 Satellite Orbit:

Table of predicted SNOs for the next 14.0 days since TLE Epoch: 9/4/2020
Index Date (METOP-A) Time (METOP-A) Lat,Lon (METOP-A) SZA (METOP-A ) Date (NOAA-19) Time (NOAA-19) Lat,Lon (NOAA-19) SZA (NOAA-19 ) Distance(km) Time Diff (sec)
1 09/09/2020 20:57:39 -80.69, 59.19 103.96 09/09/2020 20:56:32 -80.68, 59.08 103.98 2.21 67
2 09/09/2020 21:48:19 80.69,-133.40 76.07 09/09/2020 21:47:37 80.67,-133.56 76.04 3.35 42
3 09/09/2020 22:39:01 -80.68, 33.72 103.95 09/09/2020 22:38:32 -80.67, 33.76 103.95 0.89 29
4 09/09/2020 23:29:41 80.68,-158.87 76.08 09/09/2020 23:29:37 80.67,-158.87 76.07 1.57 4
5 09/10/2020 00:20:23 -80.67, 8.25 103.93 09/10/2020 00:20:33 -80.68, 8.09 103.93 3.13 10
6 09/10/2020 01:11:03 80.67, 175.66 76.09 09/10/2020 01:11:37 80.66, 175.82 76.10 3.21 34
7 09/10/2020 02:01:45 -80.66, -17.21 103.92 09/10/2020 02:02:33 -80.67, -17.22 103.90 1.57 48
